www.pogodaiklimat.ru
ПОГОДА в Аэропорту Энтеббе
Время
(UTC), дата
19 24.11
20 24.11
21 24.11
22 24.11
23 24.11
00 25.11
02 25.11
03 25.11
04 25.11
05 25.11
06 25.11
08 25.11
09 25.11
10 25.11
11 25.11
12 25.11
13 25.11
16 25.11
18 25.11
19 25.11
20 25.11
21 25.11
22 25.11
23 25.11
00 26.11
01 26.11
02 26.11
03 26.11
04 26.11
05 26.11
06 26.11
07 26.11
08 26.11
09 26.11
10 26.11
11 26.11
12 26.11
13 26.11
14 26.11
15 26.11
16 26.11
17 26.11
18 26.11
19 26.11
20 26.11
21 26.11
22 26.11
23 26.11
00 27.11
02 27.11
03 27.11
04 27.11
05 27.11
06 27.11
07 27.11
08 27.11
09 27.11
10 27.11
11 27.11
12 27.11
13 27.11
14 27.11
15 27.11
16 27.11
17 27.11
18 27.11
19 27.11
20 27.11
21 27.11
22 27.11
23 27.11
00 28.11
01 28.11
02 28.11
03 28.11
04 28.11
05 28.11
06 28.11
07 28.11
09 28.11
10 28.11
11 28.11
12 28.11
13 28.11
14 28.11
15 28.11
16 28.11
17 28.11
18 28.11
19 28.11
20 28.11
21 28.11
22 28.11
23 28.11
00 29.11
01 29.11
02 29.11
03 29.11
04 29.11
05 29.11
06 29.11
07 29.11
08 29.11
09 29.11
10 29.11
11 29.11
12 29.11
13 29.11
14 29.11
15 29.11
16 29.11
17 29.11
18 29.11
19 29.11
20 29.11
21 29.11
22 29.11
23 29.11
00 30.11
03 30.11
04 30.11
05 30.11
06 30.11
07 30.11
08 30.11
09 30.11
10 30.11
11 30.11
12 30.11
13 30.11
14 30.11
15 30.11
16 30.11
17 30.11
18 30.11
19 30.11
20 30.11
21 30.11
22 30.11
00 1.12
01 1.12
02 1.12
03 1.12
04 1.12
05 1.12
06 1.12
07 1.12
08 1.12
09 1.12
10 1.12
11 1.12
12 1.12
13 1.12
23 30.12
Ветер
(напр.,м/с)
Видим. Явления Облачность Т
(С)
Тd
(С)
f
(%)
Тe
(С)
Тes
(С)
Комфортность P
(гПа)
Po
(гПа)
Тmin
(С)
Tmax
(С)
R
(мм)
R24
(мм)
S
(см)
З 3 10 км 2/2 630 м +22.0 +19.0 83 +27 +27 душно 1017.0 889.8
З 3 10 км 2/2 630 м +22.0 +19.0 83 +27 +27 душно 1017.0 889.8
З 1 10 км 5/5 600 м +21.4 +19.2 87 +26 +26 душно 1016.0 884.9
З 3 10 км 2/2 600 м +22.0 +18.0 78 +27 +27 душно
С 2 10 км дождь 8/5 570 м
[Ac Ns]
+22.0 +18.0 78 +27 +27 душно 1016.0 888.8
С 6 10 км слаб. дождь {гроза} 10/6 540 м
[Cb cap Ac As]
+20.4 +18.0 86 +24 +24 комфорт 885.4
В 6 н/о гроза, ливневой дождь 10/8 480 м
[Ac Cb]
+18.0 +18.0 100 +17 +17
В 6 8000 м гроза, ливневой дождь 10/8 480 м
[Ac Cb]
+18.0 +18.0 100 +17 +17 1019.0 889.8
С 2 н/о гроза, ливневой дождь 10/8 480 м
[Ac Cb]
+18.0 +18.0 100 +19 +19
С 4 8000 м гроза, ливневой дождь 10/8 480 м
[Ac Cb]
+18.0 +17.0 94 +18 +18 1020.0 890.6
С 4 9000 м дождь {гроза} 10/8 480 м
[Cb cap As op]
+18.3 +17.4 94 +19 +19 1020.0 889.1 +17.0 76
С 2 9000 м слаб. дождь 10/8 510 м
[Ac Ns]
+19.0 +18.0 94 +21 +23 комфорт 1021.0 891.9
З 2 9000 м слаб. дождь 10/8 500 м
[Cb cap As op]
+19.0 +16.8 87 +21 +22 комфорт 1020.0 889.0
З 4 9000 м слаб. дождь 10/8 510 м
[Ac Ns]
+20.0 +17.0 83 +23 +24 комфорт 1019.0 890.6
З 6-11 10 км слаб. дождь 10/8 510 м
[Ac Ns]
+20.0 +17.0 83 +22 +23 комфорт 1018.0 889.7
З 6-11 10 км {дождь} 8/5 540 м
[Cb cap As op]
+20.5 +16.9 80 +24 +25 комфорт 1016.0 885.3
СЗ 8 10 км 2/2 600 м +22.0 +17.0 73 +26 +28 душно 1015.0 887.9
С 3 10 км 2/2 540 м +21.0 +18.0 83 +26 +26 душно 1017.0 889.3
СЗ 2 10 км 2/2 570 м +21.0 +18.0 83 +26 +26 душно 1018.0 890.2
С 2 10 км 2/2 570 м +21.0 +18.0 83 +26 +26 душно 1018.0 890.2
С 2 10 км 2/2 540 м +20.0 +18.0 88 +24 +24 комфорт 1019.0 890.6
С 2 10 км 2/2 540 м +20.0 +18.0 88 +24 +24 комфорт 1017.0 888.9
С 2 10 км 2/2 540 м +20.0 +18.0 88 +24 +24 комфорт 1018.0 889.7
С 2 10 км 2/2 540 м +20.0 +18.0 88 +24 +24 комфорт
С 2 10 км 2/2 510 м +19.0 +17.0 88 +21 +21 комфорт 1016.0 887.5
С 2 10 км 2/2 510 м +19.0 +17.0 88 +21 +21 комфорт 1016.0 887.5
С 2 10 км 2/2 510 м +19.0 +17.0 88 +21 +21 комфорт 1016.0 887.5
С 2 10 км 2/2 510 м +19.0 +17.0 88 +21 +21 комфорт 1017.0 888.4
С 3 10 км 2/2 510 м +19.0 +17.0 88 +21 +21 комфорт 1017.0 888.4
С 2 10 км 2/2 540 м +20.0 +17.0 83 +23 +25 комфорт 1018.0 889.7
СЗ 1 10 км 3/3 570 м
[Cb cap Ci fib]
+21.5 +18.0 80 +26 +30 душно 1018.0 886.6 +17.5 3
СЗ 5 10 км 2/2 630 м +23.0 +18.0 73 +28 +33 душно 1018.0 891.0
З 1 10 км 2/2 660 м +24.0 +18.0 69 +28 +42 душно 1018.0 891.4
З 4 10 км 5/5 690 м +25.0 +20.0 74 +31 +37 очень
душно
1017.0 891.0
Ю 6 10 км 5/5 720 м +27.0 +20.0 66 +33 +37 очень
душно
1016.0 890.9
Ю 8 10 км 5/5 720 м +26.0 +20.0 70 +32 +34 очень
душно
1016.0 890.6
Ю 6-11 10 км 5/5 720 м +26.0 +19.0 65 +31 +34 очень
душно
1014.0 888.7
Ю 8 10 км слаб. морось 8/5 690 м
[Ac St]
+25.0 +19.0 69 +30 +31 душно 1014.0 888.3
Ю 7 10 км 8/5 660 м
[Ac]
+25.0 +19.0 69 +30 +30 душно 1014.0 888.3
Ю 4 10 км {морось} 8/3 660 м
[Cb cap Ac trans]
+24.3 +19.6 75 +30 +30 очень
душно
1014.0 882.9
СЗ 3 10 км 2/2 660 м +24.0 +20.0 78 +29 +29 душно 1014.0 888.0
С 4 10 км 2/2 630 м +23.0 +21.0 89 +31 +31 очень
душно
1015.0 888.5
С 4 10 км 4/3 600 м
[Cb cap Ci ing]
+21.7 +20.0 90 +27 +27 душно 1015.0 884.5
С 4 10 км 2/2 600 м +21.0 +20.0 94 +26 +26 душно 1016.0 888.5
С 4 10 км 2/2 600 м +21.0 +20.0 94 +26 +26 душно 1016.0 888.5
С 3 10 км 2/2 600 м +21.0 +19.0 88 +26 +26 душно 1015.0 887.6
С 3 10 км 2/2 600 м +20.0 +19.0 94 +24 +24 комфорт 1015.0 887.2
С 3 10 км 8/2 600 м
[Ac]
+21.0 +19.0 88 +26 +26 душно 1015.0 887.6
С 3 10 км 8/2 600 м
[Ac]
+21.0 +19.0 88 +26 +26 душно 1015.0 887.6
СВ 7-12 10 км 8/2 600 м
[Ac]
+21.0 +20.0 94 +26 +26 душно 1016.0 888.5
С 8-12 8000 м гроза, ливневой дождь 8/4 600 м
[Cb cap Ac trans]
+21.0 +20.2 95 +26 +26 душно 1016.0 885.5
С 5 9000 м гроза, ливневой дождь 10/5 570 м
[Ac Cb]
+18.0 +18.0 100 +18 +18 1018.0 888.9
Ю 3 9000 м слаб. дождь 8/5 570 м
[Ac Ns]
+19.0 +18.0 94 +21 +21 комфорт 1017.0 888.5
Ю 4 15 км 8/3 720 м
[Cb cap Ci ing]
+26.0 +18.2 62 +31 +33 очень
душно
1016.5 886.0
С 1 10 км 2/2 630 м +24.0 +19.0 74 +29 +39 душно 1017.0 890.6
ЮВ 3 10 км 2/2 690 м +25.0 +18.0 65 +29 +39 душно 1017.0 890.9
Ю 4 10 км 2/2 720 м +26.0 +18.0 61 +30 +40 душно 1016.0 890.4
Ю 5 10 км 2/2 750 м +27.0 +19.0 62 +32 +40 очень
душно
1016.0 890.9
Ю 6 10 км 2/2 750 м +27.0 +20.0 66 +33 +39 очень
душно
1015.0 890.1
ЮВ 7 20 км 5/3 750 м
[Cb cap Ci ing]
+27.0 +20.2 66 +33 +35 очень
душно
1014.0 883.4
Ю 8 10 км 2/2 750 м +27.0 +20.0 66 +33 +34 очень
душно
1013.0 888.3
Ю 5 10 км 2/2 690 м +25.0 +18.0 65 +29 +31 душно 1013.0 887.4
Ю 2 10 км 8/6 600 м
[St Ac As]
+25.0 +18.8 68 +30 +30 душно 1013.0 882.5
Ю 2 10 км 2/2 660 м +24.0 +20.0 78 +29 +29 душно 1014.0 888.0
Ю 2 10 км 2/2 660 м +24.0 +20.0 78 +29 +29 душно 1015.0 888.9
Ю 1 10 км 2/2 630 м +23.0 +20.0 83 +30 +30 очень
душно
1015.0 888.5
СВ 1 10 км 2/2 630 м +23.0 +21.0 89 +31 +31 очень
душно
1016.0 889.4
С 3 9000 м 2/2 600 м +22.0 +20.0 88 +28 +28 душно 1016.0 888.9
С 2 9000 м мгла 8/8 600 м
[Cu med, cong Ac As]
+21.5 +20.4 93 +27 +27 душно 1016.0 885.4
С 2 9000 м 2/2 600 м +22.0 +20.0 88 +28 +28 душно 1015.0 888.1
СВ 1 9000 м 2/2 570 м +21.0 +20.0 94 +27 +27 душно 1015.0 887.7
С 1 9000 м мгла 8/8 600 м
[Cu med, cong Ac As]
+21.0 +20.0 94 +27 +27 душно 1014.0 886.8
СВ 3 9000 м 2/2 570 м +21.0 +20.0 94 +26 +26 душно 1015.0 887.7
С 5-13 9000 м 8/2 570 м
[Ac]
+21.0 +20.0 94 +26 +26 душно 1015.0 887.7
С 3 10 км 10/2 540 м
[Ac As]
+20.0 +18.0 88 +23 +23 комфорт 1015.0 887.1
СВ 2 10 км 8/2 540 м
[Ac]
+20.0 +18.0 88 +24 +24 комфорт 1016.0 888.0
С 2 10 км 2/2 570 м +21.0 +19.0 88 +26 +28 душно 1016.0 888.5
С 3 10 км 6/6 300 м
[Cb calv Ac cuf]
+22.9 +19.9 83 +30 +32 очень
душно
1017.0 885.8
С 1 10 км 8/2 600 м
[Ac]
+23.0 +20.0 83 +30 +36 очень
душно
1018.0 891.1
Ю 5 10 км 2/2 720 м +27.0 +19.0 62 +32 +40 очень
душно
1016.0 890.9
Ю 7 10 км 2/2 720 м +27.0 +20.0 66 +33 +37 очень
душно
1016.0 890.9
Ю 7 10 км 2/2 720 м +27.0 +20.0 66 +33 +37 очень
душно
1015.0 890.1
Ю 8 10 км 3/3 720 м
[Cb cap]
+27.0 +20.2 66 +33 +35 очень
душно
1013.0 882.7
З 5 10 км 2/2 720 м +27.0 +20.0 66 +33 +37 очень
душно
1012.0 887.4
Ю 2 10 км 2/2 690 м +25.0 +20.0 74 +31 +34 очень
душно
1013.0 887.5
Ю 3 10 км 4/3 660 м
[Cb cap Ci ing]
+24.7 +20.3 77 +31 +31 очень
душно
1013.0 882.3
ЮЗ 4 10 км 2/2 660 м +24.0 +20.0 78 +29 +29 душно 1013.0 887.1
Ю 5 10 км 2/2 660 м +24.0 +20.0 78 +29 +29 душно 1014.0 888.0
ЮЗ 2 10 км 3/3 660 м
[Cb cap Ac trans]
+23.2 +19.8 81 +30 +30 очень
душно
1016.0 884.8
ЮЗ 2 10 км 2/2 660 м +23.0 +20.0 83 +30 +30 очень
душно
1016.0 889.3
З 4 10 км 2/2 660 м +23.0 +21.0 89 +31 +31 очень
душно
1016.0 889.4
В 15-23 10 км слаб. дождь 10/6 540 м
[Cb cap Ac As]
+21.5 +20.3 93 +27 +27 душно 1017.0 886.2
В 4 н/о гроза, ливневой дождь 10/8 540 м
[Ac Cb]
+18.0 +18.0 100 +18 +18 1018.0 888.9
С 2 9000 м дождь 10/8 540 м
[Ac Ns]
+18.0 +18.0 100 +19 +19 1017.0 888.0
С 14 10 км слаб. дождь {гроза} 10/6 540 м
[Cb cap Ac As]
+18.2 +17.6 96 +19 +19 1016.8 885.8
З 4 10 км 10/8 540 м
[Ac]
+19.0 +17.0 88 +20 +20 1016.0 887.5
З 4 10 км 8/5 540 м
[Ac]
+19.0 +17.0 88 +20 +20 1016.0 887.5
З 7 10 км 9/5 540 м
[Cb cap Ac As]
+19.0 +17.6 92 +20 +20 1017.0 886.0
З 3 10 км 8/5 540 м
[Ac]
+19.0 +18.0 94 +21 +21 комфорт 1017.0 888.5
З 2 10 км 8/2 570 м
[Ac]
+20.0 +18.0 88 +24 +25 комфорт 1018.0 889.7
С 2 10 км 4/3 630 м
[Cb cap Ac trans]
+20.7 +18.6 88 +26 +29 душно 1019.0 887.6 +18.0 26
СЗ 2 10 км 2/2 600 м +21.0 +18.0 83 +26 +34 душно 1019.0 891.0
С 3 10 км 8/2 630 м
[Ac]
+23.0 +19.0 78 +29 +35 очень
душно
1020.0 892.8
З 5 10 км гроза без осадков 4/4 630 м
[Cb cap Cs]
+24.0 +19.0 74 +29 +34 душно 1019.0 887.8
З 6 9000 м гроза без осадков 5/5 630 м
[Cb]
+25.0 +18.0 65 +29 +33 душно 1018.0 891.8
З 5 9000 м гроза без осадков 5/5 630 м
[Cb]
+25.0 +21.0 78 +31 +36 очень
душно
1017.0 891.1
Ю 8 10 км 4/4 630 м
[Cb cap Cs]
+25.1 +18.2 66 +30 +31 душно 1016.0 885.1
ЮЗ 5 10 км 2/2 660 м +25.0 +16.0 57 +28 +32 жарко 1016.0 889.9
З 4 10 км 2/2 660 м +25.0 +17.0 61 +29 +31 душно 1015.0 889.1
СВ 6 10 км 9/4 630 м
[Cb cap Cs]
+23.0 +19.1 79 +29 +29 очень
душно
1015.0 884.5
С 3 10 км 2/2 600 м +22.0 +19.0 83 +27 +27 душно
С 4 10 км 2/2 600 м +21.0 +19.0 88 +26 +26 душно
С 3 10 км 9/9 600 м
[Cu med, cong Ac As Cs]
+20.4 +18.9 94 +24 +24 комфорт 1017.0 886.3
С 2 10 км 2/2 600 м +20.0 +19.0 94 +24 +24 комфорт 1018.0 889.8
С 2 10 км 2/2 600 м +20.0 +19.0 94 +24 +24 комфорт 1018.0 889.8
С 3 10 км 9/9 600 м
[Cu med, cong Ac As Ci ing]
+20.0 +18.3 88 +23 +23 комфорт 1018.0 886.8
С 3 10 км 2/2 600 м +20.0 +18.0 88 +23 +23 комфорт 1018.0 889.7
С 3 10 км 2/2 570 м +19.0 +18.0 94 +21 +21 комфорт 1017.0 888.5
С 2 10 км 9/9 300 м
[Cb calv Ac cuf Ci ing]
+19.3 +17.9 92 +22 +22 комфорт 1016.0 885.4
З 2 10 км 10/10 300 м
[Sc diur, vesp Ac cuf Ci ing]
+19.7 +18.3 92 +23 +23 комфорт 1018.0 886.7
ЮЗ 2 10 км 8/8 570 м
[Sc]
+20.0 +18.0 88 +24 +24 комфорт 1018.0 889.7
З 1 10 км 5/5 570 м +20.0 +18.0 88 +24 +25 комфорт 1019.0 890.6
З 1 10 км 2/2 570 м +22.0 +19.0 83 +27 +32 душно 1020.0 892.4
ЮЗ 5 10 км 2/2 600 м +23.0 +18.0 73 +28 +33 душно 1020.0 892.7
З 5 10 км 2/2 600 м +23.0 +18.0 73 +28 +35 душно 1020.0 892.7
В 5 10 км 2/2 630 м +26.0 +18.0 61 +30 +38 душно 1019.0 893.1
В 7 10 км 2/2 660 м +26.0 +18.0 61 +30 +35 душно 1019.0 893.1
В 7 10 км 2/2 690 м +26.0 +19.0 65 +31 +35 очень
душно
1018.0 892.2
Ю 7 10 км 2/2 690 м +25.0 +18.0 65 +29 +32 душно 1017.0 890.9
Ю 5 10 км 2/2 690 м
В 4 10 км 2/2 660 м +24.0 +18.0 69 +28 +30 душно 1016.0 889.6
В 1 10 км 4/3 660 м
[Cb cap Ci sp]
+23.5 +19.4 78 +29 +29 душно 1015.0 884.3
ЮВ 1 10 км 2/2 630 м +23.0 +19.0 78 +29 +29 очень
душно
1015.0 888.4
штиль 0 10 км 2/2 630 м +23.0 +19.0 78 +29 +29 очень
душно
1016.0 889.3
штиль 0 10 км ясно +22.4 +19.1 82 +28 +28 душно 1017.0 886.2
штиль 0 10 км ясно +22.0 +21.0 94 +28 +28 душно 1018.0 890.8
С 2 10 км ясно +21.0 +20.0 94 +27 +27 душно 1018.0 890.3
штиль 0 10 км ясно +21.0 +18.9 88 +25 +25 комфорт 1018.0 886.5
штиль 0 10 км ясно +21.0 +19.0 88 +25 +25 комфорт 1017.0 889.3
штиль 0 10 км 1/1 540 м
[Cu Sc]
+20.0 +19.3 96 +23 +23 комфорт 1016.0 884.8
С 3 10 км ясно +19.0 +18.0 94 +21 +21 комфорт 1016.0 887.6
штиль 0 10 км ясно +20.0 +19.0 94 +23 +23 комфорт 1016.0 888.1
штиль 0 10 км 1/1 540 м
[Cu Sc]
+19.7 +18.7 94 +22 +22 комфорт 1016.0 885.5
С 1 10 км 2/2 540 м +20.0 +19.0 94 +24 +24 комфорт 1017.0 888.9
штиль 0 10 км 2/2 540 м +21.0 +19.0 88 +25 +27 комфорт 1018.0 890.2
С 2 10 км 1/1 600 м
[Cu Sc Ci fib]
+21.6 +20.5 93 +27 +32 душно 1018.0 886.7 +18.5
С 4 10 км 2/2 660 м +24.0 +19.0 74 +29 +34 душно 1018.0 891.4
С 4 10 км 2/2 690 м +26.0 +19.0 65 +31 +39 очень
душно
1018.0 892.2
С 5-10 10 км 4/4 750 м
[Cb cap Ci fib]
+27.0 +19.1 62 +32 +38 очень
душно
1017.0 886.0
ЮВ 4-9 9000 м 5/5 720 м +27.0 +20.0 66 +33 +40 очень
душно
1016.0 890.9
ЮВ 5 10 км 5/5 750 м +27.0 +19.0 62 +32 +37 очень
душно
1016.0 890.9
ЮВ 5 10 км 2/2 750 м +27.0 +20.0 66 +33 +39 очень
душно
1014.0 889.2
ЮВ 5 10 км 2/2 750 м +27.0 +19.0 62 +32 +36 очень
душно
1014.0 889.1
штиль 0 10 км 2/2 570 м +20.0 +19.0 94 +23 +23 комфорт 1016.0 888.1
Местоположение метеостанции Аэропорт Энтеббе (Уганда): широта 0.05 долгота 32.45 высота над уровнем моря 1155 м.
В архиве по умолчанию представлена погода в Аэропорту Энтеббе за последнюю неделю. Архивные данные за месяц целиком и за предыдущие месяцы, начиная с января 2011 года, Вы можете получить, выбрав интересующий диапазон дат из раскрывающегося списка и нажав кнопку "Найти!".
*Определитесь, кто Вы:
Внимание! Время в таблицах - всемирное. Для получения местного времени необходимо прибавить поправку, которая равна 3 ч.
Смотрите также архив погоды в соседних городах и на ближайших метеорологических станциях:
Партнеры нашего сайта:      
Пояснения к столбцам:
  • Ветер - указаны скорость ветра в м/с - средняя за 10 мин, порывы в срок и между сроками (в фигурных скобках) и направление, откуда дует ветер: С - северный,
  • СВ - северо-восточный, В - восточный, ЮВ - юго-восточный, Ю - южный, ЮЗ - юго-западный, З - западный, СЗ - северо-западный.
  • Видимость - горизонтальная дальность видимости в метрах или километрах. При видимости от 1 до 10 км при отсутствии осадков обычно наблюдается дымка, при ухудшении видимости до 1 км и менее - туман. В сухую погоду видимость может ухудшаться дымом, пылью или мглою.
  • Явления - указаны атмосферные явления, наблюдавшиеся в срок или в последний час перед сроком; фигурными скобками обозначены явления, наблюдавшиеся между сроками (за 1-3 часа до срока); квадратными скобками обозначены град или гололедные отложения с указанием их диаметра в мм.
  • Облачность - указаны через наклонную черту общая и нижняя облачность в баллах и высота нижней границы облаков в метрах; квадратными скобками обозначены формы облаков: Ci - перистые, Cs - перисто-слоистые, Cc - перисто-кучевые, Ac - высококучевые, As - высокослоистые, Sc - слоисто-кучевые, Ns - слоисто-дождевые, Cu - кучевые, Cb - кучево-дождевые. Подробнее классификацию облаков см. в Атласе облаков (PDF).
  • T - Температура воздуха - температура, измеренная на высоте 2 м над землей.
  • Td - Температура точки росы - температура, при понижении до которой содержащийся в воздухе водяной пар достигнет насыщения.
  • f - Относительная влажность воздуха - влажноcть воздуха, измеренная на высоте 2 м над землей.
  • Te - Эффективная температура - температура, которую ощущает одетый по сезону человек в тени. Характеристика душности погоды. При расчете учитывается влияние влажности воздуха и скорости ветра на теплоощущения человека.
  • Tes - Эффективная температура на солнце - температура, которую ощущает человек, с поправкой на солнечный нагрев. Характеристика знойности погоды. Зависит от высоты солнца над горизонтом, облачности и скорости ветра. Ночью, в пасмурную погоду, а также при ветре 12 м/с и более поправка равна нулю.
  • P - Атмосферное давление - приведенное к уровню моря атмосферное давление.
  • Po - Атмосферное давление - измеренное на уровне метеостанции атмосферное давление.
  • Tmin - Минимальная температура - минимум температуры воздуха на высоте 2 м над землей.
  • Tmax - Максимальная температура - максимум температуры воздуха на высоте 2 м над землей.
  • R - Количество осадков - Количество выпавших осадков за период времени, мм. При наведении курсора мыши на число - период времени, за который выпало указанное количество осадков.
  • R24 - Количество осадков - Количество выпавших осадков за 24 часа, мм.
  • S - Снежный покров - Высота снежного покрова, см. При наведении курсора мыши на число - состояние снежного покрова и степень покрытия местности в баллах.